• în România
  • Lista ţărilor
  • Pe 7 zile
  • Temperatura apei
  • Hartă satelitară
  • Meteo pe hartă
  • Widget-uri
  • user-avatar
    Intrare

    Meteo pe oră la Malanville

    Astăzi, 19 Septembrie, Miercuri

    Timp Temperatura Precipitaţii Vânt Presiune Umiditate
    00:00 +28°C° 0 mm 3 m/s 744 mmHg 87%
    01:00 +28°C° 0 mm 3 m/s 743 mmHg 87%
    02:00 +27°C° 0 mm 3 m/s 743 mmHg 88%
    03:00 +27°C° 0 mm 2 m/s 743 mmHg 88%
    04:00 +27°C° 0 mm 2 m/s 743 mmHg 89%
    05:00 +27°C° 0 mm 2 m/s 743 mmHg 89%
    06:00 +27°C° 0 mm 2 m/s 743 mmHg 89%
    07:00 +29°C° 0 mm 3 m/s 744 mmHg 80%
    08:00 +30°C° 0 mm 3 m/s 744 mmHg 71%
    09:00 +33°C° 0 mm 3 m/s 744 mmHg 62%
    10:00 +35°C° 0 mm 3 m/s 744 mmHg 56%
    11:00 +36°C° 0 mm 3 m/s 744 mmHg 50%
    12:00 +38°C° 0 mm 3 m/s 743 mmHg 44%
    13:00 +38°C° 0 mm 3 m/s 743 mmHg 43%
    14:00 +39°C° 0 mm 2 m/s 742 mmHg 41%
    15:00 +39°C° 0 mm 2 m/s 741 mmHg 39%
    16:00 +38°C° 0 mm 2 m/s 741 mmHg 44%
    17:00 +36°C° 0 mm 2 m/s 741 mmHg 48%
    18:00 +35°C° 0 mm 2 m/s 741 mmHg 53%
    19:00 +34°C° 0 mm 2 m/s 742 mmHg 56%
    20:00 +32°C° 0 mm 2 m/s 742 mmHg 58%
    21:00 +31°C° 0 mm 3 m/s 743 mmHg 61%
    22:00 +31°C° 0 mm 3 m/s 743 mmHg 64%
    23:00 +30°C° 0 mm 3 m/s 742 mmHg 66%

    Mâine, 20 Septembrie, Joi

    Timp Temperatura Precipitaţii Vânt Presiune Umiditate
    00:00 +30°C° 0 mm 3 m/s 742 mmHg 68%
    01:00 +29°C° 0 mm 2 m/s 742 mmHg 69%
    02:00 +29°C° 0 mm 2 m/s 742 mmHg 71%
    03:00 +29°C° 0 mm 2 m/s 741 mmHg 72%
    04:00 +28°C° 0.1 mm 2 m/s 742 mmHg 75%
    05:00 +28°C° 0.1 mm 2 m/s 742 mmHg 77%
    06:00 +27°C° 0.1 mm 2 m/s 742 mmHg 79%
    07:00 +29°C° 0.1 mm 2 m/s 743 mmHg 73%
    08:00 +31°C° 0.1 mm 2 m/s 744 mmHg 67%
    09:00 +34°C° 0.1 mm 3 m/s 744 mmHg 61%
    10:00 +36°C° 0 mm 2 m/s 744 mmHg 55%
    11:00 +36°C° 0 mm 1 m/s 743 mmHg 49%
    12:00 +39°C° 0 mm 1 m/s 743 mmHg 44%
    13:00 +39°C° 0 mm 1 m/s 742 mmHg 42%
    14:00 +40°C° 0 mm 1 m/s 741 mmHg 40%
    15:00 +40°C° 0 mm 2 m/s 740 mmHg 37%
    16:00 +38°C° 0 mm 2 m/s 740 mmHg 42%
    17:00 +37°C° 0 mm 2 m/s 740 mmHg 47%
    18:00 +35°C° 0 mm 2 m/s 740 mmHg 52%
    19:00 +34°C° 0 mm 3 m/s 741 mmHg 57%
    20:00 +33°C° 0 mm 3 m/s 741 mmHg 63%
    21:00 +32°C° 0 mm 4 m/s 742 mmHg 68%
    22:00 +30°C° 0.1 mm 4 m/s 742 mmHg 69%
    23:00 +30°C° 0.1 mm 3 m/s 742 mmHg 71%

    Poimâine, 21 Septembrie, Vineri

    Timp Temperatura Precipitaţii Vânt Presiune Umiditate
    00:00 +29°C° 0.1 mm 3 m/s 742 mmHg 72%
    01:00 +29°C° 0.1 mm 3 m/s 742 mmHg 74%
    02:00 +28°C° 0.1 mm 3 m/s 742 mmHg 76%
    03:00 +28°C° 0.1 mm 3 m/s 741 mmHg 78%
    04:00 +28°C° 0 mm 3 m/s 741 mmHg 79%
    05:00 +27°C° 0 mm 3 m/s 741 mmHg 80%
    06:00 +27°C° 0 mm 2 m/s 742 mmHg 81%
    07:00 +29°C° 0 mm 3 m/s 742 mmHg 74%
    08:00 +30°C° 0 mm 3 m/s 743 mmHg 68%
    09:00 +33°C° 0 mm 3 m/s 744 mmHg 61%
    10:00 +34°C° 0 mm 3 m/s 743 mmHg 55%
    11:00 +36°C° 0 mm 3 m/s 743 mmHg 49%
    12:00 +37°C° 0 mm 3 m/s 743 mmHg 43%
    13:00 +38°C° 0 mm 3 m/s 742 mmHg 41%
    14:00 +38°C° 0 mm 3 m/s 741 mmHg 40%
    15:00 +39°C° 0 mm 2 m/s 741 mmHg 38%
    16:00 +37°C° 0 mm 3 m/s 741 mmHg 44%
    17:00 +36°C° 0 mm 3 m/s 741 mmHg 49%
    18:00 +34°C° 0 mm 3 m/s 741 mmHg 54%
    19:00 +33°C° 0.2 mm 3 m/s 742 mmHg 60%
    20:00 +31°C° 0.2 mm 3 m/s 742 mmHg 65%
    21:00 +30°C° 0.2 mm 4 m/s 743 mmHg 70%
    22:00 +29°C° 0 mm 4 m/s 743 mmHg 72%
    23:00 +29°C° 0 mm 3 m/s 742 mmHg 73%

    22 Septembrie, Sâmbătă

    Timp Temperatura Precipitaţii Vânt Presiune Umiditate
    00:00 +28°C° 0 mm 3 m/s 742 mmHg 74%
    01:00 +28°C° 0.6 mm 3 m/s 742 mmHg 78%
    02:00 +27°C° 0.6 mm 2 m/s 742 mmHg 81%
    03:00 +26°C° 0.6 mm 1 m/s 742 mmHg 85%
    04:00 +27°C° 0 mm 2 m/s 742 mmHg 85%
    05:00 +27°C° 0 mm 2 m/s 742 mmHg 85%
    06:00 +27°C° 0 mm 2 m/s 743 mmHg 85%
    07:00 +29°C° 0 mm 3 m/s 743 mmHg 77%
    08:00 +31°C° 0 mm 3 m/s 744 mmHg 70%
    09:00 +33°C° 0 mm 3 m/s 745 mmHg 62%
    10:00 +35°C° 0.3 mm 3 m/s 744 mmHg 58%
    11:00 +36°C° 0.3 mm 3 m/s 744 mmHg 53%
    12:00 +37°C° 0.3 mm 2 m/s 743 mmHg 49%
    13:00 +37°C° 0 mm 3 m/s 743 mmHg 49%
    14:00 +37°C° 0 mm 3 m/s 742 mmHg 49%
    15:00 +37°C° 0 mm 4 m/s 741 mmHg 49%
    16:00 +35°C° 0.2 mm 3 m/s 741 mmHg 54%
    17:00 +34°C° 0.2 mm 3 m/s 742 mmHg 60%
    18:00 +31°C° 0.2 mm 3 m/s 742 mmHg 66%
    19:00 +30°C° 1 mm 3 m/s 742 mmHg 72%
    20:00 +29°C° 1 mm 3 m/s 742 mmHg 78%
    21:00 +28°C° 1 mm 3 m/s 743 mmHg 84%
    22:00 +27°C° 0 mm 3 m/s 743 mmHg 84%
    23:00 +27°C° 0 mm 3 m/s 742 mmHg 84%

    23 Septembrie, Duminică

    Timp Temperatura Precipitaţii Vânt Presiune Umiditate
    00:00 +27°C° 0 mm 3 m/s 742 mmHg 84%
    01:00 +27°C° 1.2 mm 3 m/s 742 mmHg 85%
    02:00 +26°C° 1.2 mm 3 m/s 742 mmHg 87%
    03:00 +26°C° 1.2 mm 3 m/s 742 mmHg 88%
    04:00 +26°C° 1.4 mm 3 m/s 743 mmHg 89%
    05:00 +25°C° 1.4 mm 3 m/s 743 mmHg 90%
    06:00 +25°C° 1.4 mm 2 m/s 744 mmHg 91%
    07:00 +27°C° 0.6 mm 3 m/s 744 mmHg 85%
    08:00 +28°C° 0.6 mm 3 m/s 745 mmHg 80%
    09:00 +29°C° 0.6 mm 3 m/s 745 mmHg 75%
    10:00 +32°C° 0 mm 4 m/s 745 mmHg 66%
    11:00 +34°C° 0 mm 4 m/s 744 mmHg 57%
    12:00 +36°C° 0 mm 5 m/s 743 mmHg 49%
    13:00 +36°C° 0 mm 5 m/s 743 mmHg 49%
    14:00 +36°C° 0 mm 4 m/s 742 mmHg 49%
    15:00 +36°C° 0 mm 4 m/s 742 mmHg 49%
    16:00 +35°C° 0.1 mm 4 m/s 742 mmHg 54%
    17:00 +33°C° 0.1 mm 3 m/s 742 mmHg 60%
    18:00 +31°C° 0.1 mm 3 m/s 743 mmHg 66%
    19:00 +30°C° 0.3 mm 3 m/s 743 mmHg 69%
    20:00 +29°C° 0.3 mm 3 m/s 743 mmHg 73%
    21:00 +28°C° 0.3 mm 2 m/s 744 mmHg 77%
    22:00 +28°C° 0.1 mm 2 m/s 743 mmHg 78%
    23:00 +27°C° 0.1 mm 2 m/s 743 mmHg 79%

    24 Septembrie, Luni

    Timp Temperatura Precipitaţii Vânt Presiune Umiditate
    00:00 +27°C° 0.1 mm 2 m/s 743 mmHg 80%
    01:00 +27°C° 0 mm 2 m/s 742 mmHg 81%
    02:00 +26°C° 0 mm 2 m/s 742 mmHg 81%
    03:00 +26°C° 0 mm 2 m/s 742 mmHg 82%
    04:00 +26°C° 0 mm 2 m/s 742 mmHg 82%
    05:00 +26°C° 0 mm 2 m/s 742 mmHg 82%
    06:00 +26°C° 0 mm 2 m/s 743 mmHg 82%
    07:00 +28°C° 0 mm 3 m/s 743 mmHg 74%
    08:00 +30°C° 0 mm 3 m/s 744 mmHg 65%
    09:00 +33°C° 0 mm 3 m/s 744 mmHg 57%
    10:00 +35°C° 0.1 mm 3 m/s 744 mmHg 53%
    11:00 +36°C° 0.1 mm 3 m/s 743 mmHg 48%
    12:00 +38°C° 0.1 mm 3 m/s 742 mmHg 43%
    13:00 +38°C° 0 mm 2 m/s 742 mmHg 41%
    14:00 +39°C° 0 mm 2 m/s 741 mmHg 40%
    15:00 +39°C° 0 mm 2 m/s 741 mmHg 38%
    16:00 +38°C° 0 mm 2 m/s 741 mmHg 42%
    17:00 +36°C° 0 mm 2 m/s 741 mmHg 46%
    18:00 +35°C° 0 mm 3 m/s 742 mmHg 50%
    19:00 +33°C° 1.2 mm 3 m/s 742 mmHg 59%
    20:00 +32°C° 1.2 mm 4 m/s 743 mmHg 69%
    21:00 +29°C° 1.2 mm 5 m/s 743 mmHg 78%
    22:00 +28°C° 0.3 mm 4 m/s 743 mmHg 80%
    23:00 +28°C° 0.3 mm 4 m/s 743 mmHg 82%
    Arată mai mult